Location: De Lemmer
(52.8462°N, 5.7091°E)
Time: 11:31:10
(UTC+00:00)

Cosmos 2298 Rocket - Pass Details

Date: 18 September 2020
Orbit: 777 x 783 km, 74.0° (Epoch: 30 October)

Event Time Altitude Azimuth Distance (km) Brightness Sun altitude
Rises 19:58:37 0° 205° (SSW) 3,261 7.2 -20.0°
Reaches altitude 10° 20:00:59 10° 206° (SSW) 2,336 6.4 -20.3°
Maximum altitude 20:06:19 85° 295° (WNW) 794 4.0 -21.0°
Drops below altitude 10° 20:11:41 10° 25° (NNE) 2,351 6.6 -21.7°
Sets 20:14:05 0° 26° (NNE) 3,282 7.4 -22.0°
